This is the latest recevied weather packets stored in our database for station/object NEWPRT. If no packets are shown the sender has not sent any weather packets the latest 10 day(s).
| Time | Temp. | Humidity | Pressure | Rain* | Wind** | Luminosity | Snow |
|---|---|---|---|---|---|---|---|
| 1777505166 | - | 51% | 1022.9 hPa | 0 mm | - | - | - |
| 1777504841 | - | 48% | 1023 hPa | 0 mm | - | - | - |
| 1777504518 | - | 48% | 1023.1 hPa | 0 mm | - | - | - |
| 1777504195 | - | 50% | 1023.1 hPa | 0 mm | - | - | - |
| 1777503872 | - | 45% | 1023.2 hPa | 0 mm | - | - | - |
| 1777503549 | - | 48% | 1023.2 hPa | 0 mm | - | - | - |
| 1777503226 | - | 45% | 1023.4 hPa | 0 mm | - | - | - |
| 1777502904 | - | 48% | 1023.5 hPa | 0 mm | - | - | - |
| 1777502580 | - | 47% | 1023.5 hPa | 0 mm | - | - | - |
| 1777502257 | - | 46% | 1023.6 hPa | 0 mm | - | - | - |
| 1777501934 | - | 48% | 1023.8 hPa | 0 mm | - | - | - |
| 1777501611 | - | 48% | 1024 hPa | 0 mm | - | - | - |
| 1777501289 | - | 47% | 1023.9 hPa | 0 mm | - | - | - |
| 1777500966 | - | 42% | 1024 hPa | 0 mm | - | - | - |
| 1777500642 | - | 42% | 1024 hPa | 0 mm | - | - | - |
| 1777500320 | - | 42% | 1024.1 hPa | 0 mm | - | - | - |
| 1777499996 | - | 43% | 1024.1 hPa | 0 mm | - | - | - |
| 1777499673 | - | 43% | 1024.1 hPa | 0 mm | - | - | - |
| 1777499350 | - | 45% | 1024 hPa | 0 mm | - | - | - |
| 1777499027 | - | 46% | 1024.2 hPa | 0 mm | - | - | - |
| 1777498704 | - | 43% | 1024.2 hPa | 0 mm | - | - | - |
| 1777498381 | - | 45% | 1024.1 hPa | 0 mm | - | - | - |
| 1777498058 | - | 46% | 1024 hPa | 0 mm | - | - | - |
| 1777497735 | - | 44% | 1024.1 hPa | 0 mm | - | - | - |
| 1777497412 | - | 44% | 1024.1 hPa | 0 mm | - | - | - |
* Rain latest hour (hover to see other rain measurements)
** Current wind speed in m/s (hover to see current wind gust speed)